Albuquerque Double Eagle, NM

9:24 PM MDT on April 21, 2018 (GMT -0600)
Double Eagle Ii

Weather History for KAEG - July, 2013

Change the Weather History Date:

Monday, July 1, 2013

  Actual Average (KABQ) Record (KABQ)
Temperature  
Mean Temperature 70 °F -  
Max Temperature 84 °F 93 °F 103 °F (1994)
Min Temperature 57 °F 64 °F 48 °F (1914)
Cooling Degree Days 6    
Growing Degree Days 20 (Base 50)    
Moisture  
Dew Point 48 °F    
Average Humidity 57    
Maximum Humidity 88    
Minimum Humidity 22    
Precipitation  
Precipitation 0.01 in - - ()
Sea Level Pressure  
Sea Level Pressure 30.29 in    
Wind  
Wind Speed 10 mph (SE)    
Max Wind Speed 25 mph    
Max Gust Speed 30 mph    
Visibility 10 miles    
Events      
Averages and records for this station are not official NWS values.
T = Trace of Precipitation, MM = Missing Value Source: NWS Daily Summary

Daily Weather History Graph

Daily Weather History Graph

Search for Another Location

Airport or City:

Astronomy

Jul. 01, 2013 Rise Set
Actual Time 5:56 AM MDT 8:25 PM MDT
Civil Twilight 5:26 AM MDT 8:55 PM MDT
Nautical Twilight 4:50 AM MDT 9:31 PM MDT
Astronomical Twilight 4:09 AM MDT 10:12 PM MDT
Moon 1:19 AM MDT (7/1) 2:50 PM MDT (7/1)
Length of Visible Light 15h 28m
Length of Day
14h 28m
Waning Crescent, 35% of the Moon is Illuminated
Jul 1
Waning Crescent
Jul 8
New
Jul 15
First Quarter
Jul 22
Full
Jul 29
Last Quarter

Hourly Weather History & Observations

Time (MDT) Temp. Dew Point Humidity Pressure Visibility Wind Dir Wind Speed Gust Speed Precip Events Conditions
12:15 AM 68.0 °F 48.2 °F 49% 30.33 in 10.0 mi NNE 9.2 mph - N/A   Unknown
12:35 AM 66.2 °F 50.0 °F 56% 30.32 in 7.0 mi NE 9.2 mph - N/A   Unknown
12:55 AM 62.6 °F 53.6 °F 72% 30.31 in 8.0 mi East 6.9 mph - 0.01 in   Unknown
1:15 AM 62.6 °F 53.6 °F 72% 30.30 in 10.0 mi SSE 11.5 mph - N/A   Unknown
1:35 AM 60.8 °F 53.6 °F 77% 30.30 in 10.0 mi SSE 10.4 mph - N/A   Unknown
1:55 AM 59.0 °F 51.8 °F 77% 30.29 in 10.0 mi South 12.7 mph - N/A   Unknown
2:15 AM 59.0 °F 53.6 °F 82% 30.28 in 10.0 mi SSE 13.8 mph - N/A   Unknown
2:35 AM 59.0 °F 51.8 °F 77% 30.29 in 10.0 mi South 11.5 mph - N/A   Unknown
2:55 AM 59.0 °F 50.0 °F 72% 30.28 in 10.0 mi South 12.7 mph - N/A   Unknown
3:15 AM 59.0 °F 50.0 °F 72% 30.28 in 10.0 mi South 9.2 mph - N/A   Unknown
3:35 AM 59.0 °F 50.0 °F 72% 30.28 in 10.0 mi South 9.2 mph - N/A   Unknown
3:55 AM 57.2 °F 50.0 °F 77% 30.29 in 10.0 mi SE 9.2 mph - N/A   Unknown
4:15 AM 59.0 °F 50.0 °F 72% 30.30 in 10.0 mi ESE 9.2 mph - N/A   Unknown
4:35 AM 59.0 °F 50.0 °F 72% 30.31 in 10.0 mi SSE 4.6 mph - N/A   Unknown
4:55 AM 57.2 °F 51.8 °F 82% 30.31 in 10.0 mi Calm Calm - N/A   Unknown
5:15 AM 57.2 °F 50.0 °F 77% 30.31 in 10.0 mi Calm Calm - N/A   Unknown
5:35 AM 57.2 °F 51.8 °F 82% 30.31 in 10.0 mi Calm Calm - N/A   Unknown
6:50 AM 57.2 °F 53.6 °F 88% 30.33 in 10.0 mi Variable 6.9 mph - N/A   Partly Cloudy
7:50 AM 62.6 °F 51.8 °F 68% 30.34 in 10.0 mi North 9.2 mph - N/A   Partly Cloudy
8:50 AM 66.2 °F 48.2 °F 52% 30.35 in 10.0 mi Calm Calm - N/A   Partly Cloudy
9:50 AM 68.0 °F 48.2 °F 49% 30.34 in 10.0 mi West 3.5 mph - N/A   Partly Cloudy
10:50 AM 71.6 °F 48.2 °F 43% 30.32 in 10.0 mi NE 4.6 mph - N/A   Partly Cloudy
11:50 AM 75.2 °F 46.4 °F 36% 30.30 in 10.0 mi SSE 6.9 mph - N/A   Partly Cloudy
12:50 PM 75.2 °F 46.4 °F 36% 30.29 in 10.0 mi SSE 4.6 mph - N/A   Scattered Clouds
1:50 PM 78.8 °F 44.6 °F 30% 30.26 in 10.0 mi Calm Calm - N/A   Scattered Clouds
2:50 PM 80.6 °F 44.6 °F 28% 30.23 in 10.0 mi NE 4.6 mph - N/A   Scattered Clouds
3:50 PM 84.2 °F 42.8 °F 23% 30.20 in 10.0 mi SE 11.5 mph 20.7 mph N/A   Mostly Cloudy
4:50 PM 84.2 °F 41.0 °F 22% 30.18 in 10.0 mi ENE 5.8 mph - N/A   Mostly Cloudy
5:50 PM 73.4 °F 46.4 °F 38% 30.20 in 10.0 mi SE 21.9 mph 28.8 mph N/A   Mostly Cloudy
6:50 PM 75.2 °F 42.8 °F 31% 30.20 in 10.0 mi ESE 23.0 mph 29.9 mph N/A   Mostly Cloudy
7:50 PM 73.4 °F 44.6 °F 36% 30.22 in 10.0 mi ESE 19.6 mph - N/A   Mostly Cloudy
8:50 PM 69.8 °F 48.2 °F 46% 30.25 in 10.0 mi SE 15.0 mph - N/A   Mostly Cloudy
9:50 PM 68.0 °F 46.4 °F 46% 30.26 in 10.0 mi SE 18.4 mph - N/A   Mostly Cloudy
10:15 PM 66.2 °F 46.4 °F 49% 30.27 in 10.0 mi SE 21.9 mph 25.3 mph N/A   Unknown
10:35 PM 66.2 °F 46.4 °F 49% 30.30 in 10.0 mi SE 19.6 mph 26.5 mph N/A   Unknown
10:55 PM 64.4 °F 46.4 °F 52% 30.30 in 10.0 mi SE 17.3 mph - N/A   Unknown
11:15 PM 64.4 °F 46.4 °F 52% 30.29 in 10.0 mi SE 21.9 mph 28.8 mph N/A   Unknown
11:35 PM 64.4 °F 44.6 °F 49% 30.31 in 10.0 mi SE 23.0 mph 26.5 mph N/A   Unknown
11:55 PM 64.4 °F 44.6 °F 49% 30.32 in 10.0 mi SE 25.3 mph 28.8 mph N/A   Unknown